White Rock, British Columbia

10:23 AM PST on January 16, 2018 (GMT -0800)
White Rock

Weather History for CWWK - December, 2012

Change the Weather History Date:

Sunday, December 23, 2012

  Actual Average Record
Temperature  
Mean Temperature 41 °F -  
Max Temperature 45 °F - - ()
Min Temperature 37 °F - - ()
Degree Days  
Heating Degree Days 24    
Moisture  
Dew Point 36 °F    
Average Humidity 80    
Maximum Humidity 92    
Minimum Humidity 66    
Precipitation  
Precipitation 0.04 in - - ()
Sea Level Pressure  
Sea Level Pressure 29.73 in    
Wind  
Wind Speed 4 mph ()    
Max Wind Speed 8 mph    
Max Gust Speed -    
T = Trace of Precipitation, MM = Missing Value Source: Averaged Metar Reports

Daily Weather History Graph

Daily Weather History Graph

Search for Another Location

Airport or City:

Trip Planner

Search our weather history database for the weather conditions in past years. The results will help you decide how hot, cold, wet, or windy it might be!

Date:

Astronomy

Dec. 23, 2012 Rise Set
Actual Time 8:03 AM PST 4:17 PM PST
Civil Twilight 7:26 AM PST 4:54 PM PST
Nautical Twilight 6:45 AM PST 5:35 PM PST
Astronomical Twilight 6:07 AM PST 6:14 PM PST
Moon 1:21 PM PST (12/23) 3:40 AM PST (12/23)
Length of Visible Light 9h 28m
Length of Day
8h 13m
Waxing Gibbous, 82% of the Moon is Illuminated
Dec 23
Waxing Gibbous
Dec 28
Full
Jan 4
Last Quarter
Jan 11
New
Jan 18
First Quarter

Hourly Weather History & Observations

Time (PST) Temp. Windchill Dew Point Humidity Pressure Visibility Wind Dir Wind Speed Gust Speed Precip Events Conditions
12:00 AM 44.6 °F 41.4 °F 36.1 °F 72% 29.72 in - ESE 5.8 mph - N/A   Unknown
1:00 AM 44.6 °F 40.2 °F 36.3 °F 73% 29.74 in - SE 8.1 mph - N/A   Unknown
2:00 AM 44.1 °F 41.5 °F 36.3 °F 74% 29.75 in - ESE 4.6 mph - N/A   Unknown
3:00 AM 43.7 °F 40.3 °F 35.2 °F 72% 29.75 in - ESE 5.8 mph - N/A   Unknown
4:00 AM 42 °F - 35 °F 66% 29.75 in - ENE 5.8 mph - -  
4:00 AM 41.7 °F 38.0 °F 34.5 °F 76% 29.75 in - ENE 5.8 mph - N/A   Unknown
5:00 AM 41.9 °F 38.2 °F 34.3 °F 75% 29.75 in - ENE 5.8 mph - N/A   Unknown
6:00 AM 41.0 °F 38.0 °F 34.5 °F 78% 29.75 in - ENE 4.6 mph - N/A   Unknown
7:00 AM 40.8 °F 37.8 °F 34.2 °F 77% 29.75 in - ENE 4.6 mph - N/A   Unknown
8:00 AM 40.8 °F 37.8 °F 34.0 °F 77% 29.75 in - NE 4.6 mph - N/A   Unknown
9:00 AM 40.6 °F 36.7 °F 34.5 °F 79% 29.75 in - NE 5.8 mph - N/A   Unknown
10:00 AM 41 °F - 35 °F 71% 29.75 in - ENE 5.8 mph - -  
10:00 AM 41.4 °F 37.6 °F 34.9 °F 78% 29.75 in - ENE 5.8 mph - N/A   Unknown
11:00 AM 41.7 °F 38.8 °F 35.8 °F 79% 29.73 in - NE 4.6 mph - N/A   Unknown
12:00 PM 42.1 °F 39.2 °F 36.0 °F 79% 29.70 in - ENE 4.6 mph - N/A   Unknown
1:00 PM 42.6 °F - 36.7 °F 79% 29.70 in - ESE 2.3 mph - N/A   Unknown
2:00 PM 42.8 °F - 37.6 °F 82% 29.68 in - NE 2.3 mph - N/A   Unknown
3:00 PM 42.6 °F 40.9 °F 37.2 °F 81% 29.69 in - ENE 3.5 mph - N/A   Unknown
4:00 PM 42 °F - 38 °F 79% 29.68 in - North 4.6 mph - -  
4:00 PM 42.3 °F 39.4 °F 37.8 °F 84% 29.68 in - North 4.6 mph - N/A   Unknown
5:00 PM 41.9 °F - 37.8 °F 85% 29.69 in - NNE 2.3 mph - N/A   Unknown
6:00 PM 41.0 °F 39.0 °F 36.9 °F 85% 29.71 in - NE 3.5 mph - N/A   Unknown
7:00 PM 40.6 °F - 36.9 °F 86% 29.73 in - NE 2.3 mph - 0.01 in   Unknown
8:00 PM 40.1 °F - 37.0 °F 89% 29.75 in - NNE 2.3 mph - 0.03 in   Unknown
9:00 PM 39.9 °F - 37.2 °F 90% 29.76 in - NE 1.2 mph - 0.01 in   Unknown
10:00 PM 39 °F - 37 °F 88% 29.78 in - SE 1.2 mph - -  
10:00 PM 39.0 °F - 36.7 °F 91% 29.78 in - SE 1.2 mph - N/A   Unknown
11:00 PM 38.7 °F - 36.5 °F 92% 29.81 in - Calm Calm - N/A   Unknown